To NAV CANADA Home Page Login to a new session Search on AWWS site Feedback and Comments Disclaimer Vers la page française équivalente Tips FAQ What's new on the site To the Forecasts and Observations / NOTAM section To "File a Flight Plan" website Publications and other links Update of the User's profile FIC Telephone Numbers My Weather Data Folder Route Weather Data Regional Weather Data Local Weather Data To the Forecasts and Observations / NOTAM section
Request Generated 03/03/2015 at 14:59:08 UTC . Weather information available at that time is displayed.

METAR/TAF

DAWSON CITY/YT    

LWIS CYDA 031400Z AUTO 09007KT M22/M25 A3017=
LWIS CYDA 031300Z AUTO 11005KT M22/M25 A3019=
LWIS CYDA 031200Z AUTO 10005KT M21/M24 A3020=

*** REMARK        : Forecast period has ended; this was the last TAF issued
*** REMARQUE : La période de prévision est échue; ceci était le dernier TAF qui a été émis
TAF CYDA 021738Z 0218/0224 10006KT P6SM FEW250
RMK NXT FCST WILL BE ISSUED AT 031645Z=
Your time UTC time
Weather data provided by Environment Canada and NAV CANADA